Regional Weather Roundup
Issued by NWS Upton, NY

Current Version | Previous Version | Text Only | Print | Product List | Glossary On
Versions: 1 2 3 4 5 6 7 8 9 10 11 12 13 14 15 16 17 18 19 20 21 22 23 24 25 26 27 28 29 30 31 32 33 34 35 36 37 38 39 40 41 42 43 44 45
000 ASUS41 KOKX 031404 RWROKX REGIONAL WEATHER ROUNDUP NATIONAL WEATHER SERVICE NEW YORK NY 1000 AM EDT MON AUG 03 2015 NOTE: "FAIR" INDICATES FEW OR NO CLOUDS BELOW 12,000 FEET WITH NO SIGNIFICANT WEATHER AND/OR OBSTRUCTIONS TO VISIBILITY. NYZ071-072-176-178-NJZ106-104-031500- NEW YORK CITY METRO AREA CITY SKY/WX TMP DP RH WIND PRES REMARKS CENTRAL PARK SUNNY 80 61 52 VRB3 29.87S LAGUARDIA APRT MOSUNNY 83 60 45 SW8 29.84S KENNEDY INTL MOSUNNY 82 65 56 SW10 29.86S NEWARK/LIBERTY MOSUNNY 84 62 47 SW13G18 29.84S BRNX BOT. GARD N/A 81 59 47 SW6 29.87R TETERBORO SUNNY 82 61 48 S12 29.83S $$ NYZ177-179-078>081-031500- LONG ISLAND NEW YORK CITY SKY/WX TMP DP RH WIND PRES REMARKS FARMINGDALE SUNNY 82 61 48 SW14 29.86S ISLIP MOSUNNY 81 66 60 S12 29.85S SHIRLEY SUNNY 82 68 62 S13 29.87F WESTHAMPTON SUNNY 81 71 71 S14G22 29.89S MONTAUK POINT N/A 81 72 74 S8 29.88F $$ NYZ052-065-067-031500- HUDSON VALLEY CITY SKY/WX TMP DP RH WIND PRES REMARKS WHITE PLAINS SUNNY 81 61 50 S8 29.85S NEWBURGH SUNNY 81 64 57 W12G17 29.84 MONTGOMERY SUNNY 80 64 58 SW10 29.82F POUGHKEEPSIE SUNNY 82 61 48 S7 29.80F ALBANY MOSUNNY 80 62 54 S12 29.75F $$ NJZ001-105-106-008-010-013-015-019>022-104-031500- NEW JERSEY CITY SKY/WX TMP DP RH WIND PRES REMARKS NEWARK/LIBERTY MOSUNNY 84 62 47 SW13G18 29.84S TETERBORO SUNNY 82 61 48 S12 29.83S CALDWELL SUNNY 80 62 54 SW10 29.84F MORRISTOWN NOT AVBL SOMERVILLE MOSUNNY 81 64 56 VRB5 29.84S SUSSEX SUNNY 78 63 59 SW8 29.83F ANDOVER N/A 77 64 64 VRB3 29.85F TRENTON SUNNY 82 64 54 SW13 29.85F MILLVILLE SUNNY 83 67 58 SW8 29.89S ATLANTIC CITY SUNNY 83 66 56 SW13 29.89S WRIGHTSTOWN NOT AVBL TOMS RIVER N/A 84 61 45 SW14G20 29.88S BELMAR SUNNY 82 63 51 SW9 29.87S $$ PAZ047>061-062-071-031500- EASTERN PENNSYLVANIA CITY SKY/WX TMP DP RH WIND PRES REMARKS PHILADELPHIA MOSUNNY 83 63 50 SW15 29.87S ALLENTOWN SUNNY 78 62 57 SW13 29.85F SCRANTON SUNNY 79 62 56 SW12 29.82F $$ CTZ002-004>006-009-010-012-RIZ004-006-007-MAZ004-011-015-031500- SOUTHERN NEW ENGLAND IN CT CITY SKY/WX TMP DP RH WIND PRES REMARKS BRADLEY INTL MOSUNNY 81 63 54 VRB6 29.82F HARTFORD SUNNY 82 64 54 S9 29.83S DANBURY SUNNY 80 59 48 SW9 29.86S WTRBRY/OXFORD SUNNY 79 63 57 SW6 29.89S BRIDGEPORT SUNNY 80 66 62 SW8 29.85S MERIDEN SUNNY 84 64 50 S8 29.85S NEW HAVEN MOSUNNY 79 65 62 S8 29.86S CHESTER FAIR 79 64 61 S10 29.88S GROTON SUNNY 78 70 76 S6 29.86S WILLIMANTIC SUNNY 82 64 54 SW9 29.85F IN RI CITY SKY/WX TMP DP RH WIND PRES REMARKS PROVIDENCE MOSUNNY 82 66 58 S13 29.87S BLOCK ISLAND N/A 79 73 83 SW15G21 29.90S WESTERLY SUNNY 79 70 74 SW10 29.88S IN MA CITY SKY/WX TMP DP RH WIND PRES REMARKS BOSTON SUNNY 83 62 49 SW13 29.84F WORCESTER SUNNY 76 62 62 S10 29.87F WESTFIELD SUNNY 79 64 60 S8 29.82F PROVINCETOWN SUNNY 79 66 65 SW13 29.88S NANTUCKET MOSUNNY 76 68 76 S10 29.90S $$ ANZ330-335-338-340-345-350-353-355-031500- COASTAL MARINE OBSERVATIONS STATION/POSITION TIME SKY/WX TEMP WIND PRES VSBY WAVE AIR SEA DIR/SP/G HT/PER (UTC) (F) (DEG/KT/KT) (MB) (MI) (FT/S) NY HARB ENTRANCE 1250 74 72 220/ 10/ 12 1010.8 3/ 7 4S FIRE IS NOT AVBL 20S FIRE ISLAND 1250 76 76 210/ 10/ 12 1011.6 3/ 7 GREAT SOUTH BAY 1300 77 80 210/ 10/ 12 N/A 23SW MTP 1350 76 75 220/ 10/ 12 1011.4 3/ 8 HUDSON CANYON NOT AVBL KINGS POINT 1300 79 75 230/ 8/ 10 1009.9 EXECUTION ROCKS 1300 81 200/ 4/ 6 N/A CENTRAL LI SOUND NOT AVBL EASTERN LI SOUND 1300 73 68 260/ 4/ 8 N/A ROBBINS REEF 1300 78 230/ 10/ 13 1009.5 $$ >>>>>>>>>>>>>>>>>>>>>>>>>>>> KEY <<<<<<<<<<<<<<<<<<<<<<<<<<< > < > SKY/WX - SKY CONDITION/PRESENT WEATHER < > TMP - TEMPERATURE IN FAHRENHEIT < > DP - DEWPOINT IN FAHRENHEIT < > RH - RELATIVE HUMIDITY IN PERCENT < > WIND - DIRECTION AND SPEED IN MPH < > PRES - MEAN SEA LEVEL PRESSURE IN INCHES OF HG < > WCI - WIND CHILL INDEX < > VSB - VISIBILITY IN MILES < > HX - HEAT INDEX < > TC - TEMPERATURE IN CELSIUS < > VRB - VARIABLE WIND DIRECTION < > < >>>>>>>>>>>>>>>>>>>>>>>>>>>> KEY <<<<<<<<<<<<<<<<<<<<<<<<<<<

USA.gov is the U.S. government's official web portal to all federal, state and local government web resources and services.